Location: ??????????
(54.7560°N, 39.1389°E)
Time: 12:01:36
(UTC+00:00)

Spot 2 Rocket - Pass Details

Date: 19 May 2025
Orbit: 753 x 766 km, 98.3° (Epoch: 13 June)

Event Time Altitude Azimuth Distance (km) Brightness Sun altitude
Exits shadow 18:37:34 - 175° (S) 2,789 5.9 -7.7°
Reaches altitude 10° 18:38:52 10° 178° (S) 2,277 5.5 -7.8°
Maximum altitude 18:43:49 60° 258° (WSW) 869 4.0 -8.2°
Drops below altitude 10° 18:48:49 10° 339° (NNW) 2,299 7.5 -8.6°
Sets 18:51:10 0° 343° (NNW) 3,231 8.4 -8.8°
